KUIPER-00153 (65773 NORAD) Tracking and Keplerian Element Data

This shows tracking and keplerian element data for the satellite.

Feedback or suggestion? Click here.




ElementValue
Catalog65773
NameKUIPER-00153
Epoch Orbit1301
Epoch Day353.8402256
Epoch Year2025
RAAN39.1254
Inclination51.8781
Eccentricity0.0013159
Argument of Perigee45.1941
Mean Anonmoly315.0102
Mean Motion15.11279004
Decay Rate6.771E-05
L11 65773U 25217M 25353.84022560 .00006771 00000+0 41394-3 0 9994
L22 65773 51.8781 39.1254 0013159 45.1941 315.0102 15.11279004 13014



Live tracking and technical data element details for KUIPER-00153 (NORAD 65773). KUIPER-00153 can be tracked NOW for your location showing map with azimuth and elevation plus other details from your city location.







IsCatalogInMostPopularTable: catalog: 65773, numindb: 3
Update: records affected: 1



GetName: 65773 KUIPER-00153

Hit Count: updated at: Sat, 11 Apr 2026 21:37:37 GMT